Location: Unspecified
(39.0670°S, 0.0000°E)
Time: 19:26:56
(UTC+00:00)

BEESAT 3 - Visible Passes

Search period start: 15 October 2019 00:00
Search period end: 25 October 2019 00:00
Orbit: 479 x 530 km, 64.9° (Epoch: 14 October)

Date Brightness Start Highest point End Pass type
(mag) Time Alt. Az. Time Alt. Az. Time Alt. Az.
15 Oct ? 19:26:54 10° S 19:29:41 19° SE 19:30:46 17° ESE visible
15 Oct ? 21:03:45 10° SW 21:05:32 23° WSW 21:05:32 23° WSW visible
16 Oct ? 19:07:41 10° S 19:10:23 18° SE 19:12:22 13° E visible
16 Oct ? 20:44:26 10° SW 20:47:09 32° W 20:47:09 32° W visible
17 Oct ? 18:48:28 10° S 18:51:04 17° SE 18:53:39 10° E visible
17 Oct ? 20:25:05 10° SW 20:28:36 38° WNW 20:28:49 37° NW visible
18 Oct ? 20:05:46 10° SW 20:09:19 40° WNW 20:10:34 30° NNW visible
19 Oct ? 19:46:25 10° SW 19:50:02 44° WNW 19:52:25 19° N visible
20 Oct ? 19:27:06 10° SW 19:30:44 47° WNW 19:34:20 10° N visible
21 Oct ? 19:07:46 10° SW 19:11:26 51° WNW 19:15:06 10° NNE visible
22 Oct ? 18:48:27 10° SW 18:52:08 55° WNW 18:55:49 10° NNE visible
